Wind_Speed
13 13 14 15 15 15 15 15 15 15 14 14 13 13 14 13 13 13 12 11 12 12 12 12 13 13 13 13 13 14 14 14 14 14 15 16 16 16 15 15 15 15 15
13 14 14 15 15 15 15 15 15 15 15 14 14 14 13 13 13 12 12 11 11 12 12 11 11 12 12 12 12 13 14 14 13 13 14 15 16 16 16 15 15 15 15
14 15 15 15 15 15 15 14 14 14 14 13 14 13 13 12 12 12 11 11 10 10 11 10 10 11 12 12 11 12 13 13 13 13 14 16 16 16 16 15 15 15 15
15 16 16 16 16 15 15 15 14 13 13 13 13 13 13 13 13 12 11 10 10 10 10 10 10 10 11 11 11 12 13 13 14 14 15 16 17 17 17 16 16 16 16
16 16 16 16 16 16 15 14 13 13 13 14 13 13 13 13 13 12 11 11 11 11 10 9 9 10 11 11 11 11 12 14 15 15 16 17 17 18 18 17 17 17 17
16 17 16 16 16 15 15 14 13 13 13 13 13 13 12 12 11 11 11 11 11 10 10 10 11 11 10 10 11 12 13 14 15 16 17 17 18 19 19 18 17 17 17
17 17 17 15 14 14 14 14 13 13 13 13 13 12 11 10 10 10 10 10 10 10 10 11 11 12 11 11 11 11 12 13 14 15 16 17 18 18 19 18 18 17 17
17 17 17 15 14 14 13 12 12 12 12 12 12 11 10 9 9 9 9 10 10 11 11 12 12 12 12 12 12 13 12 13 13 14 15 16 17 18 18 18 18 18 17
16 16 16 15 14 13 12 11 11 11 11 12 11 10 10 10 10 9 10 10 10 11 11 11 12 13 13 12 13 12 13 13 13 14 14 14 15 15 16 17 18 18 18
16 16 15 15 14 13 12 12 11 11 10 11 11 10 11 10 10 10 10 10 10 10 10 11 12 12 12 12 12 12 12 13 13 12 12 13 14 15 16 16 17 17 18
16 16 15 14 13 13 12 10 10 10 10 11 11 11 11 11 11 11 11 11 11 11 10 10 10 10 10 11 11 11 11 12 13 13 13 13 15 15 15 16 17 17 18
17 16 14 14 14 13 12 12 11 11 11 11 11 12 12 12 12 12 12 11 11 10 10 10 9 9 9 10 11 11 11 11 12 13 13 14 14 15 15 16 17 17 18
17 16 15 14 14 13 13 12 12 12 12 11 11 11 11 10 10 11 10 10 10 11 11 10 10 10 10 10 10 11 11 12 12 12 13 13 14 14 15 16 17 17 18
17 16 15 15 14 14 13 13 13 13 13 13 12 12 11 11 10 10 10 10 9 9 9 10 10 11 10 10 11 11 12 13 14 14 14 14 14 14 15 16 16 16 17
18 18 17 16 16 15 15 14 14 14 14 14 14 13 13 13 11 11 10 10 9 9 9 9 9 10 10 11 12 12 12 13 14 14 14 14 14 15 15 16 17 17 18
18 17 17 17 17 17 16 16 15 15 16 15 15 14 14 14 13 12 12 11 11 11 11 11 11 11 11 12 12 12 13 13 13 14 15 15 16 16 16 17 18 18 19
18 18 18 18 18 18 17 17 16 16 17 17 17 16 15 15 14 14 13 13 13 13 13 13 13 13 13 13 13 14 14 14 14 15 16 16 17 17 18 19 19 19 20
20 19 19 19 19 18 17 17 17 17 17 18 18 18 17 17 16 16 16 16 15 15 15 15 15 15 15 15 15 15 15 16 16 16 17 18 18 19 19 19 20 20 22
21 21 21 21 20 19 19 19 18 17 18 18 18 18 18 18 18 18 17 17 17 17 17 17 17 17 17 17 17 18 19 18 18 18 19 19 20 20 20 20 21 21 22
22 22 22 22 21 20 20 19 18 18 18 19 19 19 19 19 18 18 18 19 20 20 20 19 18 18 19 19 19 20 20 20 20 20 21 20 20 21 21 21 21 21 22
22 22 22 22 21 21 20 19 20 20 20 20 20 20 19 19 18 18 18 19 19 19 19 19 20 20 20 20 21 20 21 21 21 21 21 21 22 22 21 21 21 21 22
23 22 22 22 22 21 21 21 21 21 21 21 22 21 21 21 20 20 20 19 19 19 19 19 20 20 21 21 21 21 21 21 21 20 21 21 22 22 22 21 21 22 22
23 23 23 23 23 23 23 23 23 23 23 23 23 22 22 22 22 22 21 20 20 20 20 20 20 20 21 21 22 22 21 21 21 21 21 21 21 22 22 23 23 23 23
23 23 23 23 23 23 24 24 24 24 24 23 24 24 24 23 23 22 22 21 21 21 21 21 21 21 21 22 22 22 22 21 22 22 22 22 22 23 23 23 24 24 24
22 22 22 23 23 24 24 24 25 25 25 25 25 25 24 23 22 23 23 23 23 22 23 22 21 22 22 22 22 23 23 22 22 22 22 22 23 23 23 24 24 24 24
21 22 22 23 23 23 24 25 26 25 25 24 24 24 24 24 24 24 24 25 24 24 23 23 23 22 23 23 23 23 23 22 22 23 23 24 23 23 23 24 24 24 24
Wind_Direction
288 288 291 293 293 291 288 285 284 282 281 280 274 270 264 262 260 262 266 270 270 271 268 259 252 252 251 248 242 243 245 246 244 244 246 244 240 240 241 244 247 251 254
287 290 292 293 293 292 290 287 283 278 275 273 272 273 268 265 261 262 265 269 270 268 267 260 253 256 250 243 242 243 243 244 243 243 245 242 240 241 243 248 251 253 256
285 289 288 289 291 293 292 288 282 275 271 270 270 272 274 270 268 266 265 269 271 264 263 258 254 252 249 249 248 245 241 241 244 245 245 243 243 244 247 250 252 254 257
285 288 287 287 288 289 289 286 280 273 268 268 269 273 273 267 266 265 266 266 268 268 263 254 250 251 248 250 250 246 245 242 245 249 249 245 244 247 250 250 252 255 260
282 286 285 284 284 284 284 283 278 269 266 266 268 272 272 267 264 262 264 267 267 263 257 251 250 253 252 251 250 246 246 245 247 248 248 249 248 249 252 252 255 258 261
278 282 283 282 281 282 280 280 275 266 264 266 269 270 270 267 265 260 263 267 264 260 256 255 252 254 255 253 252 248 248 249 249 250 251 251 250 251 253 255 256 260 262
274 278 281 281 284 282 279 277 271 266 263 265 267 266 266 266 265 260 263 265 262 258 255 254 253 254 255 256 254 252 251 252 251 254 255 253 251 252 253 253 256 259 259
274 276 279 279 281 281 279 274 267 262 260 263 263 262 263 266 267 264 264 263 260 258 256 254 250 255 258 259 257 255 257 255 253 256 257 259 257 256 255 254 255 257 259
274 275 278 277 277 276 274 274 265 259 257 258 260 261 259 263 264 265 267 267 262 260 259 256 253 255 257 258 260 263 260 256 256 259 259 261 259 256 257 256 257 259 262
274 274 273 272 269 269 269 269 265 261 261 257 259 258 257 261 264 267 270 273 270 264 259 257 254 254 256 259 260 265 264 264 262 259 258 260 261 259 261 259 258 258 261
271 270 269 267 264 263 262 266 271 265 260 256 256 257 257 260 262 264 267 269 268 263 258 254 250 252 256 258 259 260 260 262 264 261 263 265 266 263 262 261 262 262 263
268 268 266 263 260 261 263 261 264 264 258 255 255 256 258 261 261 259 260 260 261 261 257 258 253 255 259 260 259 259 260 261 264 263 265 267 268 265 266 267 267 267 268
265 266 267 265 263 263 262 261 260 261 257 254 254 254 256 261 261 258 256 256 258 259 257 256 256 259 260 261 263 261 260 260 262 266 268 270 272 274 273 270 270 271 272
264 264 265 263 262 261 260 262 258 256 256 254 253 255 259 264 265 262 260 258 257 257 257 257 257 259 262 264 266 266 262 260 263 266 269 272 276 278 279 278 276 275 274
264 262 263 261 260 260 258 259 258 256 255 255 255 258 260 263 266 264 264 263 265 265 267 266 264 265 269 274 273 272 269 268 268 268 270 272 275 278 280 280 277 275 276
263 261 261 261 260 257 254 255 256 257 255 253 254 256 257 259 264 261 260 261 263 265 269 272 271 271 275 277 278 275 274 273 273 275 274 274 275 277 278 279 278 276 278
260 258 258 259 258 256 252 251 255 255 255 254 252 253 255 257 262 262 257 257 261 264 267 270 271 271 273 275 277 277 274 275 279 282 280 279 279 279 280 279 280 281 281
256 255 255 255 255 255 254 253 254 252 254 254 253 252 254 255 256 259 258 257 261 266 268 270 270 270 271 271 274 278 277 278 279 281 281 281 281 282 281 280 284 285 284
253 251 252 253 254 254 255 256 256 254 253 254 253 252 252 253 256 259 260 261 262 265 268 269 269 270 271 271 274 276 278 278 279 280 281 282 283 283 284 284 285 285 285
251 248 250 252 252 254 254 256 254 254 254 255 254 253 252 253 256 259 261 262 264 265 266 267 268 269 271 272 274 275 277 279 279 280 281 281 282 284 284 283 284 286 286
249 248 249 249 249 252 253 254 255 254 254 255 255 254 255 256 259 261 264 265 266 268 267 267 267 268 270 271 274 277 278 280 281 281 281 280 280 281 283 285 285 286 287
249 248 248 248 249 251 252 254 256 256 254 254 253 254 255 257 261 264 265 267 270 271 271 271 272 272 273 274 276 279 280 280 282 282 282 282 282 282 284 286 287 287 289
250 249 249 250 248 248 251 254 255 255 254 253 252 253 255 258 260 262 263 266 269 271 271 272 273 274 274 274 276 278 278 278 278 279 281 281 280 281 283 284 286 287 288
248 248 249 250 249 251 253 253 254 255 255 254 253 254 255 258 260 260 261 263 266 268 269 271 271 271 272 271 272 275 277 277 277 279 279 280 281 282 284 285 285 286 286
249 247 248 248 250 252 253 254 254 255 255 255 254 252 254 257 260 261 262 264 267 268 268 270 271 271 271 271 271 273 275 275 276 278 279 280 281 283 285 286 286 285 285
252 252 251 251 251 253 255 256 256 257 258 257 255 253 255 257 260 263 263 264 266 267 267 268 270 272 273 274 273 273 273 274 275 277 279 281 282 283 284 285 285 284 283
Height
5859 5858 5857 5855 5854 5853 5851 5850 5849 5848 5847 5846 5845 5844 5844 5843 5843 5843 5843 5843 5843 5843 5842 5843 5843 5843 5843 5844 5845 5846 5846 5847 5848 5848 5849 5850 5852 5853 5855 5855 5856 5857 5858
5855 5854 5853 5852 5851 5850 5848 5846 5845 5844 5843 5843 5842 5841 5840 5839 5840 5840 5840 5840 5840 5839 5839 5839 5840 5840 5840 5841 5842 5842 5843 5844 5845 5845 5846 5848 5849 5850 5851 5852 5853 5854 5854
5852 5851 5850 5849 5847 5846 5844 5843 5841 5840 5840 5839 5839 5838 5837 5837 5837 5837 5837 5837 5836 5836 5836 5836 5836 5837 5838 5838 5839 5840 5840 5841 5842 5842 5843 5845 5846 5847 5847 5848 5849 5850 5851
5848 5847 5846 5845 5843 5842 5841 5839 5838 5837 5836 5836 5835 5835 5835 5834 5834 5834 5834 5834 5833 5833 5833 5833 5834 5834 5835 5835 5836 5837 5837 5838 5839 5839 5840 5842 5843 5844 5844 5845 5846 5847 5847
5844 5843 5842 5840 5839 5838 5837 5835 5834 5834 5833 5833 5833 5832 5832 5831 5830 5830 5831 5831 5830 5831 5831 5831 5831 5831 5832 5833 5833 5833 5834 5835 5836 5836 5837 5838 5839 5840 5841 5842 5842 5843 5843
5840 5839 5837 5836 5835 5834 5833 5832 5831 5830 5830 5830 5829 5829 5828 5828 5827 5828 5828 5828 5828 5828 5828 5828 5829 5829 5830 5830 5830 5831 5831 5832 5832 5833 5833 5834 5835 5836 5837 5838 5838 5838 5839
5835 5834 5833 5832 5831 5830 5829 5828 5827 5827 5827 5827 5827 5826 5826 5825 5825 5825 5826 5826 5825 5825 5826 5826 5826 5827 5827 5827 5828 5828 5828 5828 5829 5829 5830 5830 5831 5832 5833 5833 5834 5834 5834
5831 5830 5829 5828 5827 5826 5825 5824 5824 5824 5824 5824 5824 5824 5824 5823 5823 5823 5823 5823 5823 5823 5823 5823 5824 5824 5824 5825 5825 5825 5825 5825 5825 5826 5826 5826 5827 5827 5828 5829 5830 5830 5830
5826 5825 5825 5824 5823 5822 5822 5821 5821 5821 5821 5821 5821 5821 5821 5821 5820 5820 5820 5820 5820 5820 5820 5820 5821 5821 5822 5822 5822 5822 5822 5822 5822 5822 5822 5823 5823 5823 5824 5825 5825 5826 5826
5822 5821 5821 5820 5820 5819 5819 5819 5818 5819 5819 5819 5819 5819 5819 5818 5818 5818 5818 5818 5817 5817 5817 5818 5818 5818 5819 5819 5819 5819 5819 5819 5819 5819 5819 5820 5820 5820 5820 5820 5821 5821 5821
5817 5817 5816 5816 5816 5816 5816 5816 5816 5816 5816 5816 5816 5816 5816 5816 5816 5816 5816 5815 5815 5815 5815 5815 5815 5816 5816 5816 5816 5816 5816 5817 5816 5816 5816 5816 5816 5816 5816 5816 5816 5816 5816
5813 5812 5812 5812 5812 5813 5813 5813 5813 5813 5813 5814 5814 5814 5814 5814 5814 5813 5813 5813 5813 5813 5813 5813 5813 5813 5813 5813 5814 5814 5814 5814 5814 5814 5814 5814 5813 5813 5812 5812 5812 5812 5811
5808 5808 5808 5808 5808 5809 5810 5810 5810 5811 5811 5811 5812 5812 5812 5812 5811 5811 5811 5811 5810 5810 5810 5810 5811 5811 5811 5811 5811 5811 5811 5811 5811 5811 5810 5810 5810 5809 5809 5808 5808 5807 5807
5803 5803 5803 5803 5804 5805 5806 5807 5807 5808 5808 5808 5809 5809 5809 5809 5809 5809 5809 5809 5808 5808 5808 5808 5808 5808 5808 5808 5808 5808 5808 5808 5808 5807 5807 5807 5806 5806 5805 5804 5804 5803 5803
5797 5797 5798 5799 5800 5801 5802 5803 5804 5804 5805 5805 5806 5806 5806 5806 5806 5806 5806 5806 5806 5806 5806 5806 5806 5806 5805 5805 5805 5805 5805 5805 5804 5804 5803 5803 5802 5802 5801 5800 5799 5799 5798
5793 5793 5794 5794 5795 5796 5798 5799 5800 5800 5801 5801 5802 5802 5802 5803 5803 5803 5803 5803 5803 5803 5803 5803 5803 5803 5803 5802 5802 5802 5801 5801 5801 5800 5799 5799 5798 5797 5797 5796 5795 5794 5793
5788 5789 5789 5790 5791 5792 5793 5794 5795 5796 5796 5797 5797 5798 5798 5799 5799 5800 5800 5800 5800 5800 5800 5800 5800 5799 5799 5799 5798 5798 5797 5797 5797 5796 5795 5794 5794 5793 5792 5791 5790 5789 5787
5783 5784 5784 5785 5786 5787 5788 5789 5790 5791 5792 5792 5793 5793 5794 5795 5795 5796 5796 5796 5796 5797 5797 5796 5796 5796 5795 5795 5795 5794 5793 5793 5792 5792 5791 5790 5789 5788 5787 5786 5785 5783 5782
5777 5778 5779 5780 5781 5782 5783 5784 5785 5786 5787 5787 5788 5789 5789 5790 5791 5791 5791 5792 5792 5792 5792 5792 5791 5791 5791 5791 5790 5790 5789 5788 5787 5787 5786 5785 5784 5783 5782 5780 5779 5778 5776
5770 5772 5773 5774 5775 5777 5778 5779 5780 5781 5782 5783 5783 5784 5785 5785 5786 5786 5787 5787 5787 5787 5787 5786 5786 5786 5786 5785 5785 5784 5784 5783 5782 5781 5780 5779 5778 5777 5775 5774 5773 5771 5770
5764 5765 5767 5768 5770 5771 5772 5774 5775 5776 5777 5777 5778 5779 5780 5780 5781 5781 5781 5781 5781 5781 5781 5781 5781 5780 5780 5780 5779 5778 5778 5777 5776 5775 5774 5773 5772 5770 5769 5768 5766 5765 5763
5757 5759 5760 5762 5763 5765 5766 5768 5769 5770 5771 5772 5773 5773 5774 5775 5775 5776 5776 5776 5776 5776 5775 5775 5775 5774 5774 5774 5773 5772 5772 5771 5770 5768 5767 5766 5765 5764 5763 5761 5760 5759 5757
5750 5752 5754 5756 5757 5759 5760 5762 5763 5764 5764 5765 5766 5767 5768 5769 5769 5769 5770 5770 5770 5770 5770 5769 5769 5768 5768 5767 5767 5766 5765 5764 5763 5762 5761 5760 5758 5757 5756 5755 5754 5752 5750
5744 5746 5748 5749 5751 5752 5754 5755 5756 5757 5758 5759 5759 5760 5761 5762 5762 5763 5763 5763 5764 5763 5763 5763 5762 5762 5762 5761 5760 5759 5758 5758 5757 5756 5754 5753 5752 5750 5749 5748 5746 5745 5744
5738 5739 5741 5743 5744 5745 5747 5748 5749 5750 5750 5751 5752 5753 5754 5754 5755 5756 5756 5757 5757 5757 5757 5756 5755 5755 5755 5754 5753 5752 5752 5751 5750 5748 5747 5746 5745 5743 5742 5740 5739 5738 5737
5731 5732 5734 5735 5737 5738 5739 5740 5741 5742 5743 5744 5744 5745 5746 5747 5748 5748 5749 5749 5749 5749 5749 5749 5748 5748 5748 5747 5746 5745 5744 5744 5743 5742 5741 5739 5738 5736 5735 5734 5732 5731 5730